TIANTUO 2 (40144 NORAD) Tracking and Keplerian Element Data

This shows tracking and keplerian element data for the satellite.

Feedback or suggestion? Click here.




ElementValue
Catalog40144
NameTIANTUO 2
Epoch Orbit21562
Epoch Day198.8210681
Epoch Year2018
RAAN281.9269
Inclination97.2974
Eccentricity0.0009828
Argument of Perigee300.299
Mean Anonmoly200.5083
Mean Motion15.33900912
Decay Rate5.02E-06
L11 40144U 14053B 18198.82106810 .00000502 00000-0 17663-4 0 9993
L22 40144 97.2974 281.9269 0009828 300.2990 200.5083 15.33900912215627

Live tracking and technical data element details for TIANTUO 2 (NORAD 40144). TIANTUO 2 can be tracked NOW for your location showing map with azimuth and elevation plus other details from your city location.

Track the satellite on the map from your city or location and see movement details for azimuth, elevation, latitude, longitude, range, height, and movement on the map or in text.







IsCatalogInMostPopularTable: catalog: 40144, numindb: 48
Update: records affected: 1



GetName: 40144 TIANTUO 2

Hit Count: updated at: Fri, 20 Jul 2018 02:39:55 GMT